AW706 Weather Reports


Display with metric or nautical units.
time (UTC)temp
F
wind
direction
speed
MPH
gust
MPH
rain 1hr
in
rain 24hr
in
rain mn
in
humidity
%
barometer
mb
20260506024003 61 195 5.0 12.0 0.00 0.00 0.00 78 1007.9
20260506023502 62 230 4.0 10.0 0.00 0.00 0.00 77 1007.8
20260506023004 62 285 4.0 9.0 0.00 0.00 0.00 77 1007.9
20260506022503 62 191 5.0 12.0 0.00 0.00 0.00 77 1007.9
20260506022002 61 272 5.0 12.0 0.00 0.00 0.00 76 1007.8
20260506021503 61 164 4.0 10.0 0.00 0.00 0.00 76 1007.8
20260506021000 61 156 4.0 9.0 0.00 0.00 0.00 76 1008.0
20260506020456 62 171 4.0 9.0 0.00 0.00 0.00 76 1007.9
20260506015956 62 169 4.0 9.0 0.00 0.00 0.00 75 1007.9
20260506015457 62 158 5.0 9.0 0.00 0.00 0.00 75 1007.8
20260506015221 62 172 5.0 10.0 0.00 0.00 0.00 75 1007.8
20260506014457 62 172 5.0 12.0 0.00 0.00 0.00 75 1007.7
20260506013956 62 163 4.0 12.0 0.00 0.00 0.00 75 1007.6
20260506013457 62 303 5.0 13.0 0.00 0.00 0.00 74 1007.6
20260506012957 62 170 6.0 13.0 0.00 0.00 0.00 74 1007.5
20260506012457 62 165 6.0 12.0 0.00 0.00 0.00 73 1007.5
20260506011957 63 178 6.0 13.0 0.00 0.00 0.00 73 1007.4
20260506011458 63 262 5.0 13.0 0.00 0.00 0.00 72 1007.4
20260506010957 63 171 5.0 9.0 0.00 0.00 0.00 72 1007.3
20260506010457 63 181 5.0 10.0 0.00 0.00 0.00 72 1007.3
20260506005958 63 153 5.0 10.0 0.00 0.00 0.00 72 1007.3
20260506005458 63 165 5.0 10.0 0.00 0.00 0.00 72 1007.1
20260506005222 63 165 4.0 10.0 0.00 0.00 0.00 71 1007.1
20260506004455 64 181 4.0 12.0 0.00 0.00 0.00 70 1007.0
20260506003954 64 181 4.0 12.0 0.00 0.00 0.00 69 1006.9
20260506003455 64 271 4.0 9.0 0.00 0.00 0.00 69 1006.9
20260506002958 64 174 4.0 9.0 0.00 0.00 0.00 68 1006.9
20260506002954 65 146 4.0 9.0 0.00 0.00 0.00 68 1006.9
20260506001955 65 169 4.0 9.0 0.00 0.00 0.00 68 1006.8
20260506001455 65 158 4.0 9.0 0.00 0.00 0.00 68 1006.8
20260506000955 65 174 4.0 12.0 0.00 0.00 0.00 68 1006.7
20260506000455 65 166 4.0 12.0 0.00 0.00 0.00 68 1006.6
20260505235955 65 189 4.0 8.0 0.00 0.00 0.00 67 1006.5
20260505235452 65 161 4.0 8.0 0.00 0.00 0.00 67 1006.6
20260505234952 65 175 3.0 9.0 0.00 0.00 0.00 67 1006.6
20260505234710 65 196 4.0 9.0 0.00 0.00 0.00 67 1006.4
20260505233950 65 181 5.0 10.0 0.00 0.00 0.00 67 1006.3
20260505233449 65 174 5.0 10.0 0.00 0.00 0.00 66 1006.2
20260505232949 65 179 4.0 10.0 0.00 0.00 0.00 66 1006.2
20260505232450 65 172 4.0 10.0 0.00 0.00 0.00 66 1006.1
20260505231950 65 328 3.0 7.0 0.00 0.00 0.00 66 1006.0
20260505231446 65 164 4.0 8.0 0.00 0.00 0.00 66 1006.0
20260505230947 65 169 5.0 11.0 0.00 0.00 0.00 66 1005.9
20260505230447 65 144 5.0 11.0 0.00 0.00 0.00 66 1005.8
20260505225947 65 173 4.0 11.0 0.00 0.00 0.00 65 1005.8
20260505225447 66 171 4.0 8.0 0.00 0.00 0.00 65 1005.7
20260505224947 66 188 4.0 9.0 0.00 0.00 0.00 64 1005.8
20260505224447 66 170 4.0 15.0 0.00 0.00 0.00 63 1005.9
20260505224211 67 194 6.0 18.0 0.00 0.00 0.00 63 1005.9
20260505223448 67 182 6.0 18.0 0.00 0.00 0.00 62 1005.7
20260505222946 67 176 6.0 13.0 0.00 0.00 0.00 61 1005.7
20260505222442 68 182 6.0 13.0 0.00 0.00 0.00 61 1005.6
20260505221442 68 177 6.0 13.0 0.00 0.00 0.00 60 1005.5
20260505220941 68 199 6.0 13.0 0.00 0.00 0.00 60 1005.5
20260505220442 69 183 6.0 13.0 0.00 0.00 0.00 60 1005.6
20260505215943 69 297 6.0 12.0 0.00 0.00 0.00 60 1005.5
20260505215442 69 101 6.0 12.0 0.00 0.00 0.00 59 1005.6
20260505214942 69 271 6.0 13.0 0.00 0.00 0.00 59 1005.7
20260505214442 69 184 6.0 13.0 0.00 0.00 0.00 60 1005.6
20260505213943 69 166 5.0 12.0 0.00 0.00 0.00 60 1005.6
20260505213442 69 180 5.0 10.0 0.00 0.00 0.00 60 1005.5
20260505212942 69 331 5.0 12.0 0.00 0.00 0.00 60 1005.5
20260505212708 68 181 6.0 13.0 0.00 0.00 0.00 61 1005.4
20260505211941 68 118 6.0 13.0 0.00 0.00 0.00 61 1005.3
20260505211439 68 175 6.0 11.0 0.00 0.00 0.00 62 1005.3
20260505210940 68 170 6.0 12.0 0.00 0.00 0.00 62 1005.3
20260505210440 68 184 5.0 12.0 0.00 0.00 0.00 63 1005.3
20260505205939 68 171 5.0 10.0 0.00 0.00 0.00 63 1005.2
20260505205440 68 178 5.0 11.0 0.00 0.00 0.00 63 1005.4
20260505205203 68 191 5.0 11.0 0.00 0.00 0.00 63 1005.4
20260505204439 68 260 5.0 10.0 0.00 0.00 0.00 62 1005.5
20260505203940 68 277 4.0 10.0 0.00 0.00 0.00 62 1005.4
20260505203440 68 172 5.0 10.0 0.00 0.00 0.00 63 1005.4
20260505202940 68 181 6.0 12.0 0.00 0.00 0.00 63 1005.4
20260505202658 68 172 6.0 12.0 0.00 0.00 0.00 63 1005.6
20260505201940 69 182 6.0 12.0 0.00 0.00 0.00 62 1005.6
20260505201440 69 189 5.0 10.0 0.00 0.00 0.00 61 1005.6
20260505200940 70 188 5.0 10.0 0.00 0.00 0.00 60 1005.7
20260505200438 70 163 4.0 10.0 0.00 0.00 0.00 61 1005.6
20260505195938 70 325 4.0 10.0 0.00 0.00 0.00 62 1005.7
20260505195437 71 186 4.0 11.0 0.00 0.00 0.00 61 1005.7
20260505194938 71 199 4.0 11.0 0.00 0.00 0.00 60 1005.8
20260505194438 71 337 3.0 9.0 0.00 0.00 0.00 61 1006.0
20260505193937 70 176 4.0 9.0 0.00 0.00 0.00 59 1005.9
20260505193438 70 155 4.0 9.0 0.00 0.00 0.00 61 1005.9
20260505192939 70 131 4.0 9.0 0.00 0.00 0.00 63 1006.1
20260505192439 69 177 4.0 9.0 0.00 0.00 0.00 62 1006.2
20260505191938 69 164 4.0 9.0 0.00 0.00 0.00 63 1006.3
20260505191438 69 185 4.0 8.0 0.00 0.00 0.00 62 1006.5
20260505190939 69 175 4.0 8.0 0.00 0.00 0.00 63 1006.4
20260505190439 69 170 5.0 11.0 0.00 0.00 0.00 63 1006.5
20260505190158 69 161 5.0 15.0 0.00 0.00 0.00 62 1006.6
20260505185436 69 210 6.0 15.0 0.00 0.00 0.00 63 1006.7
20260505185153 69 221 5.0 11.0 0.00 0.00 0.00 63 1006.7
20260505184433 70 192 4.0 11.0 0.00 0.00 0.00 63 1006.9
20260505184418 70 252 4.0 10.0 0.00 0.00 0.00 61 1007.0
20260505183433 70 166 4.0 10.0 0.00 0.00 0.00 62 1007.0
20260505182933 70 203 4.0 9.0 0.00 0.00 0.00 64 1007.1
20260505182433 70 90 4.0 8.0 0.00 0.00 0.00 64 1007.0
20260505181933 70 284 4.0 8.0 0.00 0.00 0.00 63 1007.1
20260505181433 70 94 3.0 7.0 0.00 0.00 0.00 63 1007.0
20260505180933 70 123 3.0 7.0 0.00 0.00 0.00 64 1007.1
20260505180433 70 303 4.0 8.0 0.00 0.00 0.00 63 1007.1
20260505180200 69 173 3.0 8.0 0.00 0.00 0.00 64 1007.1
20260505175433 69 59 3.0 7.0 0.00 0.00 0.00 64 1007.2
20260505174930 69 333 3.0 6.0 0.00 0.00 0.00 64 1007.3
20260505174430 69 172 4.0 8.0 0.00 0.00 0.00 65 1007.3
20260505173930 69 182 3.0 8.0 0.00 0.00 0.00 65 1007.3
20260505173654 69 152 3.0 7.0 0.00 0.00 0.00 64 1007.3
20260505172928 69 185 4.0 8.0 0.00 0.00 0.00 64 1007.4
20260505172427 68 179 5.0 8.0 0.00 0.00 0.00 66 1007.4
20260505172150 69 176 4.0 8.0 0.00 0.00 0.00 65 1007.4
20260505171428 69 282 5.0 9.0 0.00 0.00 0.00 64 1007.4
20260505170928 70 182 4.0 9.0 0.00 0.00 0.00 63 1007.4
20260505170428 71 179 3.0 8.0 0.00 0.00 0.00 62 1007.5
20260505165928 71 98 3.0 8.0 0.00 0.00 0.00 61 1007.5
20260505165428 71 163 3.0 8.0 0.00 0.00 0.00 62 1007.5
20260505164928 71 150 4.0 9.0 0.00 0.00 0.00 60 1007.5
20260505164428 70 180 4.0 9.0 0.00 0.00 0.00 62 1007.5
20260505163928 71 181 3.0 7.0 0.00 0.00 0.00 61 1007.6
20260505163425 71 243 3.0 6.0 0.00 0.00 0.00 61 1007.7
20260505162926 71 322 3.0 8.0 0.00 0.00 0.00 61 1007.8
20260505162423 71 324 4.0 9.0 0.00 0.00 0.00 61 1007.9
20260505161922 71 178 4.0 9.0 0.00 0.00 0.00 61 1007.9
20260505161422 71 172 4.0 8.0 0.00 0.00 0.00 60 1007.9
20260505160923 71 140 4.0 8.0 0.00 0.00 0.00 62 1007.9
20260505160423 71 188 4.0 8.0 0.00 0.00 0.00 62 1007.9
20260505153146 70 307 3.0 6.0 0.00 0.00 0.00 62 1008.1
20260505152420 70 151 3.0 7.0 0.00 0.00 0.00 62 1008.2
20260505151918 69 134 3.0 8.0 0.00 0.00 0.00 62 1008.3
20260505151417 69 187 3.0 8.0 0.00 0.00 0.00 64 1008.4
20260505150914 70 324 3.0 6.0 0.00 0.00 0.00 63 1008.4
20260505150415 70 186 3.0 6.0 0.00 0.00 0.00 61 1008.5
20260505140413 69 278 4.0 9.0 0.00 0.00 0.00 61 1008.1
20260505124907 64 180 3.0 7.0 0.00 0.00 0.00 70 1007.9
20260505124404 64 164 3.0 7.0 0.00 0.00 0.00 70 1007.9
20260505124121 64 152 2.0 6.0 0.00 0.00 0.00 71 1007.7
20260505123405 64 189 2.0 5.0 0.00 0.00 0.00 72 1007.7
20260505123126 63 294 2.0 5.0 0.00 0.00 0.00 73 1007.7
20260505122402 63 175 2.0 5.0 0.00 0.00 0.00 74 1007.6
20260505121902 62 179 2.0 6.0 0.00 0.00 0.00 75 1007.6
20260505121402 62 250 2.0 6.0 0.00 0.00 0.00 76 1007.7
20260505120902 61 154 2.0 6.0 0.00 0.00 0.00 77 1007.8
20260505120401 60 178 2.0 5.0 0.00 0.00 0.00 79 1007.8
20260505115902 59 188 2.0 5.0 0.00 0.00 0.00 82 1007.9
20260505115402 58 207 2.0 5.0 0.00 0.00 0.00 83 1008.0
20260505114902 58 201 2.0 4.0 0.00 0.00 0.00 85 1007.9
20260505114402 57 207 2.0 4.0 0.00 0.00 0.00 87 1007.8
20260505114128 57 123 2.0 4.0 0.00 0.00 0.00 88 1007.9
20260505113623 57 135 2.0 4.0 0.00 0.00 0.00 89 1008.0
20260505113343 56 175 2.0 3.0 0.00 0.00 0.00 90 1008.1
20260505112400 56 176 2.0 3.0 0.00 0.00 0.00 91 1007.9
20260505111859 55 168 2.0 3.0 0.00 0.00 0.00 92 1007.9
20260505111400 55 168 2.0 3.0 0.00 0.00 0.00 93 1007.9
20260505110900 55 166 2.0 3.0 0.00 0.00 0.00 93 1007.9
20260505110400 54 180 1.0 3.0 0.00 0.00 0.00 94 1007.9
20260505101854 53 175 2.0 3.0 0.00 0.00 0.00 95 1007.3
20260505101355 53 200 1.0 3.0 0.00 0.00 0.00 96 1007.1
20260505101114 53 155 2.0 3.0 0.00 0.00 0.00 96 1007.1
20260505100614 53 150 2.0 3.0 0.00 0.00 0.00 96 1006.9
20260505095855 53 171 2.0 3.0 0.00 0.00 0.00 96 1006.8
20260505095355 53 157 2.0 3.0 0.00 0.00 0.00 96 1006.7
20260505094855 52 162 2.0 3.0 0.00 0.00 0.00 96 1006.8
20260505094355 52 154 2.0 3.0 0.00 0.00 0.00 95 1006.8
20260505094112 52 179 2.0 3.0 0.00 0.00 0.00 95 1006.7
20260505093355 52 171 2.0 2.0 0.00 0.00 0.00 95 1006.8
20260505092856 53 170 2.0 2.0 0.00 0.00 0.00 95 1006.8
20260505092355 53 159 1.0 3.0 0.00 0.00 0.00 95 1006.8
20260505091856 53 165 2.0 3.0 0.00 0.00 0.00 95 1006.9
20260505091355 53 153 2.0 3.0 0.00 0.00 0.00 95 1006.9
20260505090857 53 170 2.0 3.0 0.00 0.00 0.00 95 1006.9
20260505090355 53 140 2.0 3.0 0.00 0.00 0.00 95 1007.0
20260505085854 53 161 2.0 2.0 0.00 0.00 0.00 95 1006.9
20260505085351 53 158 2.0 3.0 0.00 0.00 0.00 94 1006.9
20260505084851 53 148 2.0 3.0 0.00 0.00 0.00 94 1006.9
20260505084351 53 173 1.0 3.0 0.00 0.00 0.00 94 1006.9
20260505083849 53 0 2.0 3.0 0.00 0.00 0.00 94 1006.9
20260505083349 53 174 2.0 3.0 0.00 0.00 0.00 94 1006.9
20260505082850 53 147 2.0 3.0 0.00 0.00 0.00 94 1006.9
20260505082350 53 185 2.0 3.0 0.00 0.00 0.00 94 1006.9
20260505081850 53 152 2.0 4.0 0.00 0.00 0.00 94 1006.9
20260505081350 53 141 2.0 4.0 0.00 0.00 0.00 94 1006.9
20260505080850 53 137 2.0 4.0 0.00 0.00 0.00 94 1006.9
20260505080351 53 159 2.0 4.0 0.00 0.00 0.00 93 1006.9
20260505080215 53 151 2.0 3.0 0.00 0.00 0.00 93 1006.9
20260505074848 53 158 2.0 3.0 0.00 0.00 0.00 93 1006.9
20260505074347 53 151 2.0 3.0 0.00 0.00 0.00 93 1006.9
20260505073847 53 137 2.0 3.0 0.00 0.00 0.00 93 1006.9
20260505073347 53 119 2.0 3.0 0.00 0.00 0.00 93 1006.9
20260505072844 53 144 2.0 4.0 0.00 0.00 0.00 93 1006.9
20260505072345 53 146 2.0 4.0 0.00 0.00 0.00 93 1006.8
20260505072107 53 139 2.0 3.0 0.00 0.00 0.00 93 1006.8
20260505071345 53 147 2.0 4.0 0.00 0.00 0.00 93 1006.9
20260505070845 53 142 2.0 4.0 0.00 0.00 0.00 93 1006.9
20260505070609 53 141 2.0 4.0 0.00 0.00 0.00 93 1006.8
20260505065845 53 141 1.0 3.0 0.00 0.00 0.00 93 1006.9
20260505065345 53 141 1.0 4.0 0.00 0.00 0.00 92 1006.9
20260505064842 53 138 2.0 4.0 0.00 0.00 0.00 92 1006.9
20260505064437 53 138 1.0 4.0 0.00 0.00 0.00 92 1006.9
20260505063344 54 169 2.0 4.0 0.00 0.00 0.00 92 1007.0
20260505062843 54 137 2.0 5.0 0.00 0.00 0.00 92 1007.0
20260505062342 54 151 2.0 5.0 0.00 0.00 0.00 92 1007.1
20260505061843 54 153 2.0 5.0 0.00 0.00 0.00 91 1007.1
20260505061343 54 164 2.0 5.0 0.00 0.00 0.00 91 1007.2
20260505061110 54 153 2.0 4.0 0.00 0.00 0.00 91 1007.2
20260505060342 54 0 2.0 4.0 0.00 0.00 0.00 91 1007.2
20260505055843 54 149 2.0 4.0 0.00 0.00 0.00 91 1007.2
20260505055343 54 128 2.0 4.0 0.00 0.00 0.00 90 1007.2
20260505055102 54 151 2.0 4.0 0.00 0.00 0.00 90 1007.3
20260505054608 54 165 2.0 4.0 0.00 0.00 0.00 90 1007.4
20260505053843 54 164 2.0 4.0 0.00 0.00 0.00 89 1007.4
20260505053340 54 121 2.0 5.0 0.00 0.00 0.00 89 1007.4
20260505052841 54 162 2.0 5.0 0.00 0.00 0.00 89 1007.5
20260505052603 55 179 2.0 5.0 0.00 0.00 0.00 88 1007.4
20260505051837 55 172 2.0 5.0 0.00 0.00 0.00 88 1007.5
20260505051334 55 175 2.0 4.0 0.00 0.00 0.00 87 1007.5
20260505051101 55 179 2.0 4.0 0.00 0.00 0.00 87 1007.5
20260505050824 55 168 2.0 4.0 0.00 0.00 0.00 87 1007.5
20260505041327 56 166 2.0 4.0 0.00 0.00 0.00 82 1007.9
20260505040827 56 154 2.0 7.0 0.00 0.00 0.00 81 1007.8
20260505040326 56 0 2.0 7.0 0.00 0.00 0.00 80 1007.9
20260505035828 56 156 3.0 8.0 0.00 0.00 0.00 79 1007.8
20260505035325 57 139 3.0 8.0 0.00 0.00 0.00 78 1007.8
20260505034824 57 186 3.0 8.0 0.00 0.00 0.00 78 1007.8
20260505034322 57 278 3.0 8.0 0.00 0.00 0.00 77 1007.7
20260505034308 57 169 3.0 7.0 0.00 0.00 0.00 77 1007.7
20260505033548 57 177 3.0 7.0 0.00 0.00 0.00 76 1007.7
20260505032822 57 197 3.0 7.0 0.00 0.00 0.00 77 1007.8
20260505032322 57 187 3.0 7.0 0.00 0.00 0.00 77 1007.8
20260505031822 57 195 3.0 5.0 0.00 0.00 0.00 77 1007.8
20260505031552 57 263 3.0 6.0 0.00 0.00 0.00 77 1007.9
20260505030822 57 191 3.0 6.0 0.00 0.00 0.00 76 1007.9
20260505030322 57 191 2.0 6.0 0.00 0.00 0.00 76 1007.9
20260505030044 57 184 3.0 6.0 0.00 0.00 0.00 76 1007.9
20260505025541 57 196 3.0 6.0 0.00 0.00 0.00 76 1007.9
20260505024822 57 205 3.0 6.0 0.00 0.00 0.00 75 1008.0
20260505024322 57 193 3.0 6.0 0.00 0.00 0.00 75 1008.0